Regional Weather Roundup
Issued by NWS Bismarck, ND

Home | Current Version | Previous Version | Text Only | Print | Product List | Glossary On
Versions: 1 2 3 4 5 6 7 8 9 10 11 12 13 14 15 16 17 18 19 20 21 22 23 24 25 26 27 28 29 30 31 32 33 34 35 36 37 38 39 40 41 42 43 44 45 46 47 48 49 50
000
ASUS43 KBIS 020920
RWRBIS

NWR BROADCAST TEXT
NATIONAL WEATHER SERVICE BISMARCK ND
400 AM CDT THU APR 02 2015

NOTE: "FAIR" INDICATES FEW OR NO CLOUDS BELOW 12,000 FEET WITH NO
SIGNIFICANT WEATHER AND/OR OBSTRUCTIONS TO VISIBILITY.


CITY           SKY/WX    TMP DP  RH WIND       PRES   REMARKS
WILLISTON      MOCLDY    39  25  57 W18G26    29.64S
MINOT          CLEAR     39  23  52 SW16      29.57S
MINOT AFB      CLEAR     37  27  67 W22       29.56R
BISMARCK       CLEAR     36  21  54 SW7       29.71R
DICKINSON      CLEAR     34  16  47 W17       29.70F
GARRISON         N/A     35  26  69 W14       29.62F
HETTINGER ARPT CLEAR     33  17  51 W15       29.78R
JAMESTOWN      PTCLDY    37  25  61 W12       29.67S
BEACH          FAIR      32  18  55 W14       29.77R
CARRINGTON     FAIR      34  25  69 SW9       29.64F
CROSBY         CLOUDY    37  27  65 W25G38    29.55F
HARVEY         FAIR      36  25  64 SW15      29.61S
HAZEN          FAIR      37  23  56 W15G23    29.67S
LINTON         FAIR      27  23  86 CALM      29.74S
MANDAN         FAIR      37  19  48 W16       29.71R
OAKES            N/A     36  27  69 SW7       29.73R
TIOGA          PTSUNNY   36  25  64 W22G30    29.61S
WATFORD CITY   FAIR      37  25  60 W22G31    29.65S
$$

CITY           SKY/WX    TMP DP  RH WIND       PRES   REMARKS
GRAND FORKS    CLEAR     33  26  75 SW7       29.60F
GRAND FORKS AF CLEAR     36  26  66 W12       29.60F
DEVILS LAKE    CLEAR     36  25  64 SW13      29.57F
FARGO          PTCLDY    40  28  62 SW13      29.67S
CANDO          FAIR      32  27  80 W10       29.55F
CAVALIER       FAIR      36  28  75 SW7       29.55F
GWINNER        SUNNY     36  28  75 SW9         N/A
ROLLA          FAIR      32  27  80 W15       29.52F
WALHALLA         N/A     39  30  70 W10G17    29.53F
$$

CITY           SKY/WX    TMP DP  RH WIND       PRES   REMARKS
ABERDEEN       CLOUDY    28  21  75 SW9       29.78R WCI  19
MOBRIDGE       CLEAR     32  23  69 CALM      29.77R
BUFFALO          N/A     32  17  54 W16       29.75R
RAPID CITY     CLEAR     26  11  52 W6        29.87S WCI  19
GLASGOW        MOCLDY    35  24  64 W25G38    29.76R
SIDNEY         PTCLDY    39  23  52 W28G41    29.71R
WOLF POINT     PTCLDY    37  25  61 W23G37    29.74R
GLENDIVE         N/A     37  23  56 W26G37    29.77S
MILES CITY     CLEAR     38  19  46 W13       29.86R
BAKER          CLEAR     34  15  46 W15       29.81R
$$

CITY           SKY/WX    TMP DP  RH WIND       PRES   REMARKS
BILLINGS       PTCLDY    36  13  38 W20G26    29.95R
GREAT FALLS    CLOUDY    31  25  78 NW17      30.04R WCI  19
REGINA         LGT SNOW  34  32  93 NW18G30   29.49R
ESTEVAN        FLURRIES  37  27  65 W22G30    29.52S
$$



USA.gov is the U.S. government's official web portal to all federal, state and local government web resources and services.